Wind_Speed
27 27 28 28 29 29 28 26 25 24 23 23 23 24 23 22 22 21 21 20 20 20 20 20 19 19 19 18 17 17 16 16 16 16 16 16 16 16 15 14 14 13 14 13 13 13 12 12 12
27 28 29 30 31 31 29 27 27 26 25 25 25 25 25 24 23 22 22 22 21 22 22 22 22 21 20 20 19 19 18 17 17 18 18 18 18 18 18 17 16 16 16 16 15 15 15 14 14
28 29 30 31 32 32 31 29 28 28 28 27 27 27 27 26 26 25 24 24 24 24 24 24 24 23 22 22 21 21 20 20 19 19 19 19 20 20 19 19 19 19 18 18 18 17 17 17 16
29 31 32 33 33 32 32 31 31 30 30 30 30 29 29 29 28 27 27 26 25 26 26 25 25 25 24 24 23 22 23 22 22 21 21 21 21 22 22 22 21 21 21 21 20 20 19 19 18
31 33 34 35 33 33 33 33 33 33 33 32 32 32 31 31 29 29 28 28 27 27 28 28 27 26 26 26 25 24 24 24 24 23 23 23 23 24 24 24 24 24 23 23 22 21 21 21 20
32 34 35 35 34 34 34 35 35 35 35 34 34 34 33 33 32 31 30 29 30 29 29 30 29 28 28 28 27 26 25 25 25 24 25 25 25 25 25 25 26 26 26 25 24 23 23 23 22
32 33 35 36 36 36 36 37 37 37 37 36 36 36 35 35 34 33 32 32 32 31 31 32 31 30 30 29 29 29 27 27 27 26 25 26 26 26 26 27 27 27 28 27 26 25 25 25 24
32 33 34 35 36 37 38 38 39 39 39 38 38 38 36 36 35 34 33 33 33 32 32 32 32 32 31 30 30 30 29 29 28 28 27 27 28 28 28 28 28 28 28 28 28 27 27 26 26
31 33 33 34 36 37 38 39 39 40 40 39 40 39 38 37 36 34 34 33 33 33 33 33 33 32 32 31 31 31 31 30 30 30 30 29 30 29 29 29 29 29 29 29 28 28 27 27 28
30 32 32 33 35 37 38 39 40 40 40 40 40 40 39 38 37 35 34 34 34 33 33 34 33 33 32 32 32 32 32 32 31 31 31 31 31 31 30 31 31 31 30 30 29 29 29 29 29
28 30 30 32 33 35 36 37 38 39 39 39 39 38 39 38 37 36 35 34 34 33 33 33 34 35 34 33 33 33 33 33 33 33 34 34 33 33 33 33 33 32 32 31 32 32 32 31 30
27 28 30 31 32 32 33 34 35 36 36 37 37 38 38 38 37 36 35 34 34 33 33 33 34 36 35 34 34 34 34 34 35 35 35 36 36 35 35 34 34 33 33 33 32 33 33 32 31
27 27 28 29 29 30 30 32 33 33 34 35 35 36 36 37 37 36 34 35 34 34 34 33 34 35 36 36 35 35 35 36 36 37 37 37 37 37 36 36 35 35 34 34 34 34 34 33 33
25 26 25 25 26 26 28 29 31 31 31 32 33 34 34 35 35 34 34 34 34 34 34 33 33 35 36 37 36 36 36 37 37 37 38 37 37 37 38 37 36 36 36 36 35 35 35 34 34
24 24 24 24 25 26 27 27 28 29 30 30 31 31 31 33 33 33 33 34 34 34 34 34 34 35 36 37 37 37 37 37 38 38 38 38 37 37 37 37 37 37 37 36 36 36 35 35 35
23 22 22 23 24 25 25 25 25 26 29 29 29 29 29 31 33 33 34 33 34 34 34 34 34 35 35 35 37 38 38 38 38 39 38 38 38 37 37 37 36 37 37 37 37 37 37 36 36
22 22 21 22 22 22 23 23 23 24 27 27 27 28 28 29 32 33 34 34 34 34 34 34 35 36 36 36 36 37 38 39 38 38 39 39 38 38 38 37 37 37 38 38 38 37 37 37 38
23 23 22 22 22 22 22 22 22 23 25 27 28 29 29 30 31 32 33 34 34 34 34 35 35 36 36 36 36 37 38 38 38 39 39 39 39 38 38 37 36 37 38 38 38 38 37 37 37
23 23 23 22 21 21 21 21 22 23 25 27 28 29 30 31 32 32 33 34 34 34 34 35 36 37 37 37 37 37 37 38 38 38 38 39 39 38 37 37 36 36 37 38 39 39 38 38 38
23 23 23 22 21 22 22 22 22 22 24 26 28 29 30 30 31 31 32 32 33 34 34 34 35 36 36 37 36 37 38 38 38 38 37 37 37 37 36 36 36 36 36 38 39 39 39 40 39
22 22 22 21 20 21 22 22 22 23 24 26 28 29 30 30 30 31 32 32 31 32 33 34 34 35 36 36 36 35 36 36 37 38 37 37 37 37 36 35 35 35 35 36 39 39 40 39 39
21 21 21 21 20 19 21 22 21 22 23 24 25 27 28 29 29 29 30 31 31 32 33 34 34 35 35 35 35 34 34 35 35 36 37 37 37 37 37 37 37 36 36 37 38 38 40 40 40
21 20 21 21 20 20 21 22 21 22 22 23 24 25 26 26 27 28 29 30 30 31 31 32 32 34 34 35 34 33 33 34 34 36 37 38 39 39 38 38 36 36 36 36 37 37 38 39 40
20 19 20 20 21 21 22 23 21 21 22 22 22 23 24 24 25 27 28 28 29 30 30 31 32 32 32 34 35 34 34 34 34 36 37 38 38 39 39 38 37 36 35 36 37 37 37 38 40
19 19 19 19 21 21 22 23 22 21 21 21 22 23 24 25 25 25 26 27 28 29 29 29 31 31 32 32 33 33 32 32 34 35 36 37 37 38 39 39 38 37 36 37 38 38 38 39 39
18 18 19 20 21 21 21 22 21 21 21 22 22 22 23 25 25 25 27 28 28 28 28 29 29 29 30 31 31 32 32 32 33 34 34 36 36 37 39 39 39 38 37 37 39 39 39 40 40
19 18 20 20 21 22 22 22 21 20 22 22 22 23 24 25 26 26 27 27 27 28 29 28 28 29 29 29 29 31 31 32 32 31 33 34 35 36 38 39 38 39 38 37 38 39 40 40 41
19 19 20 20 21 23 22 21 21 20 21 21 22 22 23 24 26 26 26 27 26 27 28 27 28 27 27 27 28 29 30 30 30 30 31 32 33 34 35 37 38 38 38 37 37 39 39 39 40
19 20 20 20 21 22 22 20 20 21 21 21 21 21 21 22 23 25 25 26 26 26 26 26 26 26 27 27 28 29 29 31 31 30 31 31 31 32 33 34 35 36 36 35 36 37 37 38 39
20 20 20 20 20 21 22 20 19 20 20 21 21 22 21 22 23 24 24 24 24 25 25 25 25 24 26 27 29 29 30 31 32 32 30 30 31 31 31 32 33 34 34 35 35 35 36 38 38
Wind_Direction
253 254 254 253 253 253 254 256 256 256 256 257 257 258 258 258 258 257 256 256 255 254 252 251 251 252 252 251 251 253 253 253 252 251 251 250 249 249 250 251 253 257 260 261 265 266 269 273 276
256 256 255 254 253 254 256 257 258 258 258 257 257 257 258 258 259 259 258 257 256 254 254 254 253 252 252 251 251 253 253 254 255 253 252 250 250 252 251 252 256 257 260 263 264 268 269 271 274
259 258 257 256 255 256 257 257 258 258 257 257 256 256 257 258 260 260 259 259 258 256 255 254 253 253 251 251 253 254 254 253 254 254 252 251 250 251 253 254 257 260 260 262 264 267 270 271 272
261 260 259 258 258 258 257 257 257 257 258 257 256 255 257 259 259 259 259 259 260 258 255 253 253 253 251 252 253 253 254 254 253 253 253 252 251 252 254 255 257 260 262 262 263 265 268 273 273
263 262 262 261 260 259 257 257 258 258 258 258 257 257 257 259 259 259 259 259 259 259 254 252 252 252 251 251 252 254 255 254 254 253 253 252 253 253 254 256 258 260 264 263 262 265 267 271 274
266 265 264 262 260 259 258 258 258 259 259 258 257 257 257 258 258 258 258 258 259 258 254 251 252 252 252 251 251 252 255 255 256 255 253 253 253 254 255 255 257 260 262 263 263 264 267 269 270
269 268 266 264 261 259 258 258 258 258 259 257 257 257 256 257 257 257 258 257 258 258 255 251 250 250 250 250 251 252 253 255 255 255 255 255 254 255 256 257 257 259 261 262 263 263 265 267 268
271 270 268 265 263 260 260 259 258 257 257 256 255 255 255 255 256 256 256 256 257 257 255 251 249 249 250 250 251 252 252 254 256 256 254 255 255 255 256 257 258 260 260 261 262 262 263 266 267
273 271 270 269 266 263 261 260 258 257 257 255 255 255 255 254 254 254 254 254 255 256 255 251 249 249 250 251 252 252 252 253 256 257 256 255 255 255 256 257 259 260 260 260 260 259 262 265 267
274 275 273 270 269 265 261 260 259 257 256 254 253 253 253 253 253 252 253 254 254 254 254 250 249 249 250 251 252 253 253 253 255 256 256 255 254 255 256 257 258 260 260 258 258 259 262 265 266
278 278 275 273 272 268 263 260 259 258 255 253 252 252 252 253 252 251 251 251 252 252 251 250 249 249 250 250 252 253 253 254 255 256 256 256 255 255 256 256 257 259 260 258 258 260 263 265 265
282 281 277 274 274 270 264 260 258 257 256 253 252 251 251 251 250 250 250 249 249 250 251 249 247 249 251 252 254 253 253 254 255 256 258 258 256 256 257 256 256 258 258 258 259 261 262 264 265
284 283 279 277 275 272 266 261 258 256 255 252 251 250 250 249 248 248 248 249 248 249 250 251 249 250 252 252 255 255 253 254 255 256 257 257 257 256 256 256 257 257 257 257 258 259 260 262 264
288 286 282 278 275 271 268 262 257 254 252 251 250 250 249 247 247 247 247 246 247 248 249 250 251 250 252 253 255 258 256 256 256 257 257 258 258 257 256 257 257 257 255 255 256 258 260 260 262
292 290 284 281 277 273 270 262 257 255 251 250 250 247 247 247 247 246 247 247 247 248 249 249 250 252 254 254 255 258 259 258 257 257 258 259 259 258 257 256 258 257 255 255 255 257 259 260 262
295 290 287 284 279 276 270 263 260 256 251 248 246 245 247 247 247 247 247 247 248 248 249 251 252 253 255 256 257 258 260 259 258 258 258 259 259 258 256 255 257 257 256 256 256 256 258 259 261
294 289 286 287 281 276 268 264 260 255 250 247 246 246 248 250 249 248 247 247 249 250 251 253 252 253 254 256 258 259 260 260 259 257 257 257 259 258 257 257 258 256 255 254 254 254 257 259 261
293 289 286 286 280 275 268 264 260 256 252 250 248 248 250 252 250 250 249 249 249 250 253 255 254 254 256 259 259 260 260 260 259 258 257 258 259 259 258 258 259 258 256 254 254 255 257 258 260
294 291 289 285 278 276 271 265 261 260 256 254 250 251 253 253 252 252 252 251 250 251 253 255 255 256 256 260 262 261 260 259 259 257 256 258 259 258 258 257 259 259 257 256 254 255 257 258 259
294 292 290 285 278 277 275 268 266 263 258 254 251 253 255 254 255 255 253 252 251 252 255 257 258 258 258 260 263 262 260 258 258 256 256 256 256 256 257 257 259 260 258 255 254 257 258 258 260
295 293 290 285 282 279 277 272 268 264 262 258 256 255 256 256 256 255 253 253 254 256 256 258 259 260 258 259 260 260 259 258 256 256 256 256 255 255 254 255 257 258 257 255 256 257 258 259 260
295 292 289 285 285 282 277 277 270 269 267 264 261 260 258 259 257 256 254 254 255 257 258 259 260 260 259 259 257 258 259 258 258 258 257 257 254 253 252 253 257 258 257 255 256 257 258 259 262
297 292 288 289 289 285 281 279 277 273 271 269 265 263 261 262 260 258 257 256 259 261 260 260 261 261 261 258 255 256 258 259 259 257 257 256 254 253 253 253 256 257 256 255 255 257 259 259 261
297 292 290 290 291 289 285 283 280 276 274 272 270 268 264 263 259 258 259 260 263 264 263 263 263 262 262 258 256 258 258 259 258 257 258 256 254 252 252 253 254 256 255 254 256 257 260 261 262
297 296 295 293 295 294 291 287 283 279 276 273 273 270 265 262 260 260 263 265 265 266 264 268 264 261 260 259 258 260 260 259 258 257 257 256 253 252 253 254 254 256 257 255 254 256 260 263 263
299 296 296 296 297 298 294 293 289 283 278 274 271 270 266 263 263 264 266 267 268 267 268 271 267 263 259 258 259 259 260 260 260 258 257 256 255 253 254 255 255 255 257 257 256 256 259 261 263
300 298 297 294 296 298 297 297 294 288 280 274 269 267 266 265 265 266 267 268 268 269 269 270 268 263 261 262 261 259 260 261 260 259 258 256 255 254 254 255 255 257 258 259 259 258 260 261 261
298 299 299 296 297 297 298 299 298 291 283 280 275 270 269 267 265 266 267 269 270 270 269 269 267 263 262 262 262 260 259 259 257 257 257 257 256 255 253 256 255 257 259 260 260 261 261 262 262
297 296 298 298 298 298 298 298 297 293 288 282 278 276 274 271 268 266 269 272 271 270 271 270 268 264 262 263 264 264 262 260 256 258 258 257 257 256 255 256 257 257 260 263 264 262 262 262 265
296 296 296 296 298 298 298 301 298 291 287 282 278 278 276 276 274 272 271 272 271 271 271 269 266 264 265 264 264 266 266 263 260 259 258 258 258 259 257 259 260 259 260 262 264 264 264 265 266
Height
5811 5813 5814 5816 5817 5818 5820 5823 5825 5827 5829 5830 5831 5832 5833 5835 5837 5841 5840 5840 5841 5842 5843 5844 5845 5846 5847 5848 5849 5850 5851 5852 5853 5854 5855 5856 5857 5858 5858 5859 5860 5860 5861 5861 5862 5862 5863 5863 5863
5806 5807 5809 5810 5810 5812 5815 5819 5821 5823 5824 5825 5826 5827 5829 5830 5832 5834 5835 5835 5836 5838 5839 5840 5841 5842 5843 5844 5845 5846 5847 5848 5850 5851 5851 5852 5853 5854 5855 5856 5857 5857 5858 5858 5859 5859 5860 5860 5860
5800 5801 5803 5803 5804 5807 5811 5814 5815 5817 5818 5819 5821 5822 5823 5825 5827 5828 5830 5831 5832 5833 5834 5835 5837 5838 5839 5840 5841 5842 5843 5844 5845 5846 5847 5848 5849 5850 5851 5852 5853 5854 5855 5855 5856 5856 5857 5857 5857
5795 5795 5795 5796 5798 5802 5805 5807 5808 5810 5812 5813 5815 5816 5818 5820 5821 5823 5824 5825 5827 5828 5829 5830 5832 5833 5834 5835 5837 5838 5839 5840 5841 5842 5843 5844 5845 5846 5847 5848 5849 5850 5851 5851 5852 5853 5853 5854 5854
5787 5787 5788 5789 5792 5796 5798 5799 5801 5803 5805 5806 5808 5810 5812 5813 5815 5817 5818 5819 5820 5822 5823 5824 5826 5827 5829 5830 5832 5833 5834 5835 5836 5837 5838 5839 5840 5841 5842 5844 5845 5846 5847 5847 5848 5849 5849 5850 5850
5779 5779 5780 5781 5785 5788 5790 5791 5793 5795 5797 5798 5800 5802 5805 5806 5808 5810 5811 5812 5813 5815 5816 5817 5819 5821 5823 5824 5826 5827 5829 5829 5830 5831 5833 5834 5835 5836 5837 5838 5840 5841 5842 5843 5843 5844 5845 5845 5846
5772 5771 5771 5773 5776 5779 5781 5782 5784 5786 5787 5790 5791 5794 5797 5798 5800 5802 5804 5805 5806 5807 5808 5810 5812 5814 5816 5818 5820 5821 5822 5824 5825 5826 5827 5828 5829 5830 5831 5833 5834 5835 5836 5837 5838 5839 5840 5840 5841
5763 5763 5763 5764 5766 5769 5771 5772 5773 5775 5778 5780 5782 5785 5788 5790 5792 5794 5795 5797 5798 5799 5800 5801 5804 5806 5808 5811 5813 5814 5816 5817 5819 5820 5821 5822 5823 5824 5825 5827 5828 5829 5830 5831 5833 5834 5834 5835 5836
5754 5755 5754 5755 5756 5759 5760 5761 5763 5764 5767 5769 5771 5775 5778 5780 5782 5785 5787 5788 5789 5790 5791 5793 5796 5798 5801 5803 5805 5807 5809 5810 5812 5813 5814 5815 5816 5817 5819 5820 5822 5823 5824 5825 5826 5828 5829 5829 5830
5746 5745 5746 5746 5746 5747 5749 5750 5751 5753 5755 5758 5761 5764 5767 5769 5772 5775 5777 5779 5781 5782 5783 5785 5787 5790 5793 5795 5797 5800 5802 5803 5805 5806 5807 5808 5809 5810 5812 5813 5815 5816 5817 5819 5820 5821 5822 5823 5824
5738 5738 5737 5736 5736 5735 5736 5738 5739 5741 5744 5747 5750 5753 5756 5759 5762 5765 5767 5769 5771 5773 5775 5777 5779 5782 5785 5787 5789 5792 5794 5796 5797 5798 5799 5800 5801 5803 5804 5806 5807 5809 5810 5811 5813 5814 5816 5817 5818
5732 5730 5729 5728 5726 5725 5726 5727 5729 5731 5734 5736 5739 5742 5745 5748 5751 5754 5757 5760 5763 5765 5767 5769 5772 5774 5776 5778 5780 5783 5785 5787 5789 5790 5791 5792 5794 5795 5796 5798 5799 5801 5802 5804 5805 5807 5809 5810 5811
5725 5724 5722 5720 5718 5717 5717 5718 5720 5722 5723 5725 5728 5731 5734 5737 5741 5744 5747 5751 5754 5757 5759 5761 5764 5766 5768 5770 5771 5774 5776 5778 5780 5781 5782 5783 5785 5786 5788 5789 5791 5793 5794 5796 5798 5799 5801 5803 5804
5719 5717 5715 5713 5711 5710 5710 5711 5712 5714 5715 5717 5719 5721 5724 5728 5731 5735 5739 5742 5745 5749 5751 5753 5755 5758 5759 5761 5763 5764 5766 5768 5770 5772 5773 5774 5775 5777 5779 5780 5782 5784 5785 5787 5789 5792 5794 5795 5797
5713 5711 5709 5707 5704 5704 5703 5704 5705 5706 5707 5709 5711 5713 5716 5720 5723 5727 5730 5734 5737 5740 5742 5744 5747 5749 5751 5752 5754 5755 5756 5758 5760 5761 5763 5764 5765 5767 5769 5771 5773 5775 5777 5779 5781 5783 5785 5787 5789
5707 5705 5704 5702 5699 5697 5698 5699 5700 5699 5700 5702 5704 5707 5710 5712 5715 5718 5722 5725 5728 5731 5733 5735 5738 5740 5742 5743 5745 5746 5746 5747 5749 5751 5752 5754 5755 5757 5759 5761 5763 5765 5767 5770 5772 5774 5776 5778 5780
5702 5700 5699 5697 5694 5692 5692 5693 5694 5694 5695 5697 5699 5701 5704 5706 5708 5710 5714 5717 5719 5722 5724 5726 5728 5730 5732 5734 5735 5736 5737 5737 5739 5740 5742 5744 5746 5747 5749 5751 5753 5755 5758 5760 5763 5765 5767 5770 5771
5698 5695 5694 5692 5690 5688 5688 5689 5690 5690 5690 5691 5693 5695 5697 5699 5701 5703 5706 5709 5711 5713 5715 5717 5719 5721 5723 5724 5725 5726 5727 5728 5729 5730 5732 5734 5736 5738 5739 5742 5744 5746 5748 5751 5753 5756 5758 5760 5762
5693 5691 5689 5688 5685 5684 5684 5684 5685 5685 5685 5686 5687 5689 5691 5692 5694 5696 5698 5700 5703 5705 5707 5708 5710 5712 5713 5715 5716 5717 5717 5719 5720 5721 5723 5724 5726 5728 5730 5732 5735 5737 5739 5741 5744 5746 5749 5751 5753
5688 5686 5685 5684 5681 5680 5679 5680 5680 5680 5680 5681 5682 5683 5684 5685 5687 5689 5691 5692 5695 5697 5699 5700 5701 5703 5704 5705 5706 5707 5708 5709 5711 5712 5713 5714 5716 5718 5721 5723 5726 5728 5730 5732 5734 5737 5739 5741 5743
5684 5682 5680 5679 5678 5676 5675 5675 5676 5675 5675 5676 5676 5676 5677 5679 5681 5682 5684 5685 5687 5689 5691 5692 5693 5694 5695 5696 5698 5698 5699 5699 5701 5702 5704 5706 5708 5710 5712 5715 5717 5719 5721 5723 5725 5727 5730 5733 5734
5681 5679 5677 5675 5673 5672 5671 5670 5671 5671 5671 5670 5671 5671 5671 5672 5673 5675 5677 5678 5680 5681 5682 5683 5684 5685 5686 5687 5688 5689 5690 5691 5692 5693 5695 5697 5699 5701 5704 5706 5708 5710 5712 5714 5717 5719 5721 5723 5725
5677 5675 5673 5672 5669 5668 5667 5666 5667 5666 5666 5666 5666 5666 5665 5666 5667 5669 5670 5671 5673 5673 5675 5675 5676 5676 5677 5678 5679 5681 5682 5682 5684 5685 5686 5688 5691 5693 5695 5697 5700 5701 5703 5705 5708 5710 5712 5714 5716
5672 5671 5669 5667 5666 5665 5664 5662 5662 5662 5661 5661 5660 5660 5659 5660 5662 5662 5663 5664 5666 5667 5667 5668 5668 5668 5669 5670 5671 5672 5673 5674 5675 5677 5678 5680 5682 5685 5687 5689 5691 5693 5695 5697 5699 5701 5702 5704 5705
5669 5668 5665 5663 5661 5661 5660 5657 5658 5657 5657 5656 5655 5654 5654 5655 5656 5657 5658 5658 5659 5660 5660 5660 5660 5660 5661 5662 5663 5664 5665 5666 5667 5669 5670 5672 5674 5677 5679 5681 5682 5684 5686 5688 5690 5692 5693 5694 5695
5665 5664 5662 5659 5657 5657 5656 5654 5655 5653 5651 5650 5650 5649 5650 5650 5651 5652 5652 5652 5652 5652 5653 5653 5652 5653 5653 5654 5656 5657 5657 5658 5659 5661 5662 5664 5666 5668 5670 5672 5674 5676 5677 5679 5680 5682 5683 5684 5686
5662 5660 5658 5656 5653 5652 5651 5650 5649 5647 5646 5645 5645 5645 5645 5645 5646 5646 5646 5646 5646 5646 5646 5645 5645 5646 5647 5648 5648 5650 5650 5651 5652 5653 5654 5656 5658 5660 5662 5664 5665 5667 5668 5670 5671 5672 5674 5675 5677
5659 5657 5655 5652 5649 5647 5646 5645 5645 5642 5641 5640 5640 5640 5639 5639 5639 5639 5640 5640 5640 5639 5639 5639 5639 5639 5640 5641 5641 5642 5644 5644 5645 5646 5647 5649 5650 5652 5654 5656 5657 5658 5660 5661 5662 5663 5665 5666 5667
5656 5654 5651 5648 5646 5644 5641 5644 5640 5638 5637 5636 5636 5635 5634 5634 5634 5634 5634 5634 5634 5633 5633 5633 5633 5634 5634 5635 5635 5636 5637 5637 5638 5639 5640 5641 5643 5644 5646 5648 5649 5650 5651 5652 5653 5655 5655 5656 5657
5652 5650 5647 5646 5643 5641 5638 5641 5636 5634 5632 5631 5631 5630 5629 5628 5628 5628 5628 5628 5628 5627 5627 5627 5628 5628 5628 5629 5629 5630 5630 5631 5632 5633 5634 5635 5636 5637 5639 5640 5641 5642 5643 5644 5645 5646 5647 5648 5648